Kimball, NE

4:01 PM MDT on May 26, 2018 (GMT -0600)
Kimball Municipal-Arraj

Weather History for KIBM - February, 2013

Change the Weather History Date:

Thursday, February 14, 2013

  Actual Average (KSNY) Record (KSNY)
Temperature  
Mean Temperature 25 °F -  
Max Temperature 31 °F 46 °F 70 °F (1999)
Min Temperature 19 °F 18 °F -10 °F (1978)
Degree Days  
Heating Degree Days 40    
Moisture  
Dew Point 20 °F    
Average Humidity 76    
Maximum Humidity 93    
Minimum Humidity 59    
Precipitation  
Precipitation 0.00 in - - ()
Sea Level Pressure  
Sea Level Pressure 30.11 in    
Wind  
Wind Speed 13 mph (NW)    
Max Wind Speed 31 mph    
Max Gust Speed 37 mph    
Visibility 9 miles    
Events Snow    
Averages and records for this station are not official NWS values.
T = Trace of Precipitation, MM = Missing Value Source: NWS Daily Summary

Daily Weather History Graph

Daily Weather History Graph

Search for Another Location

Airport or City:

Astronomy

Feb. 14, 2013 Rise Set
Actual Time 7:50 AM CST 6:28 PM CST
Civil Twilight 7:21 AM CST 6:56 PM CST
Nautical Twilight 6:49 AM CST 7:28 PM CST
Astronomical Twilight 6:17 AM CST 8:00 PM CST
Moon 9:50 AM CST (2/14) 11:36 PM CST (2/14)
Length of Visible Light 11h 34m
Length of Day
10h 37m
Waxing Crescent, 22% of the Moon is Illuminated
Feb 14
Waxing Crescent
Feb 17
First Quarter
Feb 25
Full
Mar 4
Last Quarter
Mar 11
New

Hourly Weather History & Observations

Time (CST) Temp. Windchill Dew Point Humidity Pressure Visibility Wind Dir Wind Speed Gust Speed Precip Events Conditions
12:15 AM 31.8 °F 22.8 °F 26.2 °F 80% 29.99 in 10.0 mi NW 11.5 mph - N/A   Mostly Cloudy
12:35 AM 31.8 °F 23.3 °F 26.6 °F 81% 29.99 in 10.0 mi NW 10.4 mph - N/A   Overcast
12:55 AM 31.1 °F 23.1 °F 26.6 °F 83% 29.98 in 10.0 mi NW 9.2 mph - N/A   Overcast
1:15 AM 31.3 °F 22.1 °F 27.0 °F 84% 29.99 in 10.0 mi WNW 11.5 mph - N/A   Overcast
1:35 AM 31.5 °F 22.9 °F 27.0 °F 83% 29.99 in 10.0 mi NW 10.4 mph - N/A   Overcast
1:55 AM 30.9 °F 22.2 °F 26.4 °F 83% 29.98 in 10.0 mi NNW 10.4 mph - N/A   Mostly Cloudy
2:15 AM 30.4 °F 22.9 °F 26.2 °F 85% 29.98 in 10.0 mi NW 8.1 mph - N/A   Scattered Clouds
2:35 AM 29.8 °F 23.9 °F 26.2 °F 86% 29.98 in 10.0 mi NW 5.8 mph - N/A   Mostly Cloudy
2:55 AM 29.3 °F 24.3 °F 25.7 °F 86% 29.98 in 10.0 mi NW 4.6 mph - N/A   Mostly Cloudy
3:15 AM 28.2 °F 22.0 °F 25.3 °F 89% 29.98 in 10.0 mi West 5.8 mph - N/A   Scattered Clouds
3:35 AM 28.0 °F 21.7 °F 25.2 °F 89% 29.98 in 10.0 mi WNW 5.8 mph - N/A   Clear
3:55 AM 29.1 °F 21.3 °F 25.7 °F 87% 29.98 in 10.0 mi NW 8.1 mph - N/A   Clear
4:15 AM 28.9 °F 21.1 °F 25.5 °F 87% 29.98 in 10.0 mi NW 8.1 mph - N/A   Mostly Cloudy
4:35 AM 28.8 °F 22.6 °F 25.3 °F 87% 29.97 in 10.0 mi NW 5.8 mph - N/A   Overcast
4:55 AM 28.6 °F 21.5 °F 25.0 °F 86% 29.97 in 10.0 mi NW 6.9 mph - N/A   Overcast
5:15 AM 27.5 °F 20.2 °F 24.6 °F 89% 29.97 in 10.0 mi West 6.9 mph - N/A   Scattered Clouds
5:35 AM 28.2 °F 20.2 °F 24.8 °F 87% 29.98 in 10.0 mi NW 8.1 mph - N/A   Scattered Clouds
5:55 AM 28.9 °F 19.8 °F 25.3 °F 86% 29.98 in 10.0 mi NW 10.4 mph - N/A   Mostly Cloudy
6:15 AM 29.8 °F 20.3 °F 25.7 °F 85% 29.98 in 10.0 mi NW 11.5 mph - N/A   Overcast
6:35 AM 29.7 °F 19.6 °F 25.7 °F 85% 29.98 in 10.0 mi NNW 12.7 mph - N/A   Overcast
6:55 AM 29.7 °F 20.1 °F 25.9 °F 86% 29.99 in 7.0 mi NNW 11.5 mph - N/A Snow Light Snow
7:15 AM 29.3 °F 20.2 °F 26.1 °F 88% 30.01 in 5.0 mi NNW 10.4 mph - N/A Snow Light Snow
7:35 AM 29.3 °F 21.5 °F 26.4 °F 89% 30.01 in 5.0 mi NW 8.1 mph - N/A Snow Light Snow
7:55 AM 28.8 °F 20.9 °F 26.6 °F 92% 30.02 in 3.0 mi NW 8.1 mph - N/A Snow Light Snow
8:15 AM 28.9 °F 21.1 °F 27.1 °F 93% 30.02 in 2.0 mi NW 8.1 mph - N/A Snow Light Snow
8:35 AM 29.3 °F 20.2 °F 27.5 °F 93% 30.04 in 1.2 mi NNW 10.4 mph - N/A Snow Light Snow
8:55 AM 26.6 °F 10.8 °F 23.0 °F 86% 30.06 in 0.8 mi North 27.6 mph 35.7 mph N/A Snow Light Snow
9:15 AM 25.9 °F 11.1 °F 22.3 °F 86% 30.08 in 10.0 mi North 23.0 mph 29.9 mph N/A   Mostly Cloudy
9:35 AM 26.2 °F 13.4 °F 21.7 °F 83% 30.09 in 10.0 mi NNW 17.3 mph 21.9 mph N/A   Scattered Clouds
9:55 AM 27.7 °F 13.5 °F 21.7 °F 78% 30.09 in 10.0 mi NNW 23.0 mph 27.6 mph N/A   Clear
10:15 AM 26.8 °F 12.9 °F 19.9 °F 75% 30.11 in 10.0 mi NNW 20.7 mph 31.1 mph N/A   Clear
10:35 AM 27.7 °F 12.0 °F 18.9 °F 69% 30.12 in 10.0 mi NNW 28.8 mph 34.5 mph N/A   Scattered Clouds
10:55 AM 27.5 °F 12.9 °F 19.6 °F 72% 30.13 in 10.0 mi NNW 24.2 mph 33.4 mph N/A   Mostly Cloudy
11:15 AM 28.8 °F 13.0 °F 21.4 °F 74% 30.14 in 10.0 mi NNW 31.1 mph 36.8 mph N/A   Mostly Cloudy
11:35 AM 28.2 °F 13.0 °F 22.5 °F 79% 30.15 in 7.0 mi NNW 27.6 mph 34.5 mph N/A   Overcast
11:55 AM 27.9 °F 13.7 °F 22.6 °F 81% 30.16 in 4.0 mi NNW 23.0 mph 32.2 mph N/A Snow Light Snow
12:15 PM 27.9 °F 14.4 °F 20.5 °F 74% 30.16 in 10.0 mi NNW 20.7 mph 33.4 mph N/A   Overcast
12:35 PM 28.6 °F 14.6 °F 19.9 °F 70% 30.17 in 10.0 mi NNW 23.0 mph 27.6 mph N/A   Overcast
12:55 PM 29.1 °F 15.4 °F 19.8 °F 68% 30.17 in 10.0 mi NNW 23.0 mph 32.2 mph N/A   Overcast
1:15 PM 28.6 °F 14.3 °F 19.4 °F 69% 30.16 in 10.0 mi NNW 24.2 mph 31.1 mph N/A   Overcast
1:35 PM 28.9 °F 15.1 °F 19.9 °F 69% 30.15 in 10.0 mi NNW 23.0 mph 35.7 mph N/A   Overcast
1:55 PM 28.4 °F 13.0 °F 18.9 °F 67% 30.16 in 10.0 mi NNW 28.8 mph 34.5 mph N/A   Overcast
2:15 PM 28.4 °F 13.5 °F 18.1 °F 65% 30.15 in 10.0 mi NNW 26.5 mph 34.5 mph N/A   Overcast
2:35 PM 28.0 °F 12.8 °F 16.3 °F 62% 30.15 in 10.0 mi NNW 27.6 mph 35.7 mph N/A   Overcast
2:55 PM 28.0 °F 13.0 °F 17.4 °F 64% 30.16 in 10.0 mi NNW 26.5 mph 32.2 mph N/A   Overcast
3:15 PM 28.4 °F 13.5 °F 17.6 °F 64% 30.16 in 10.0 mi NNW 26.5 mph 31.1 mph N/A   Overcast
3:35 PM 29.1 °F 15.7 °F 16.9 °F 60% 30.17 in 10.0 mi NNW 21.9 mph 32.2 mph N/A   Overcast
3:55 PM 28.2 °F 13.6 °F 16.7 °F 62% 30.19 in 10.0 mi NNW 25.3 mph 29.9 mph N/A   Overcast
4:15 PM 28.2 °F 14.5 °F 17.1 °F 63% 30.19 in 10.0 mi NNW 21.9 mph 28.8 mph N/A   Overcast
4:35 PM 28.2 °F 14.8 °F 16.3 °F 61% 30.20 in 10.0 mi North 20.7 mph 26.5 mph N/A   Overcast
4:55 PM 29.1 °F 16.0 °F 16.3 °F 59% 30.20 in 10.0 mi NNW 20.7 mph 24.2 mph N/A   Overcast
5:15 PM 27.3 °F 14.0 °F 16.0 °F 62% 30.21 in 10.0 mi NNW 19.6 mph 26.5 mph N/A   Overcast
5:35 PM 26.6 °F 14.3 °F 15.3 °F 62% 30.20 in 10.0 mi NNW 16.1 mph - N/A   Overcast
5:55 PM 26.2 °F 13.8 °F 15.3 °F 63% 30.20 in 10.0 mi NNW 16.1 mph - N/A   Overcast
6:15 PM 25.5 °F 15.5 °F 15.3 °F 65% 30.21 in 10.0 mi NNW 10.4 mph - N/A   Overcast
6:35 PM 24.8 °F 13.4 °F 14.5 °F 65% 30.21 in 10.0 mi NNW 12.7 mph 16.1 mph N/A   Overcast
6:55 PM 24.3 °F 15.4 °F 13.8 °F 64% 30.22 in 10.0 mi NNW 8.1 mph - N/A   Overcast
7:15 PM 23.9 °F 15.0 °F 13.8 °F 65% 30.23 in 10.0 mi NNW 8.1 mph - N/A   Overcast
7:35 PM 23.0 °F 13.9 °F 14.0 °F 68% 30.22 in 10.0 mi NW 8.1 mph - N/A   Overcast
7:55 PM 23.7 °F 15.6 °F 13.8 °F 66% 30.23 in 10.0 mi NNW 6.9 mph - N/A   Overcast
8:15 PM 23.4 °F 15.2 °F 13.5 °F 66% 30.22 in 10.0 mi NW 6.9 mph - N/A   Overcast
8:35 PM 22.6 °F 14.3 °F 13.1 °F 67% 30.22 in 10.0 mi NW 6.9 mph - N/A   Overcast
8:55 PM 20.7 °F 11.9 °F 13.1 °F 73% 30.22 in 10.0 mi WNW 6.9 mph - N/A   Overcast
9:15 PM 20.8 °F 11.2 °F 13.8 °F 74% 30.23 in 10.0 mi WNW 8.1 mph - N/A   Overcast
9:35 PM 20.8 °F 12.1 °F 14.0 °F 75% 30.22 in 10.0 mi West 6.9 mph - N/A   Overcast
9:55 PM 20.3 °F 12.5 °F 14.0 °F 77% 30.23 in 10.0 mi WNW 5.8 mph - N/A   Overcast
10:15 PM 20.1 °F 10.3 °F 14.0 °F 77% 30.22 in 10.0 mi WNW 8.1 mph - N/A   Overcast
10:35 PM 19.6 °F 11.7 °F 13.8 °F 78% 30.23 in 10.0 mi NW 5.8 mph - N/A   Overcast
10:55 PM 20.3 °F 10.6 °F 14.0 °F 77% 30.23 in 10.0 mi NW 8.1 mph - N/A   Overcast
11:15 PM 19.9 °F 11.1 °F 13.6 °F 77% 30.22 in 10.0 mi NW 6.9 mph - N/A   Overcast
11:35 PM 19.4 °F 10.4 °F 13.1 °F 76% 30.23 in 10.0 mi NW 6.9 mph - N/A   Overcast
11:55 PM 19.4 °F 9.5 °F 13.1 °F 76% 30.23 in 10.0 mi NW 8.1 mph - N/A   Overcast